Simultaneous Nadir Overpasses (SNOs) Predictions

Prediction of SNOs between GOES-16 and METOP-C Satellite Orbit:

Table of predicted SNOs for the next 14.0 days since TLE Epoch: 4/4/2025
Index Date Time (GOES-16) GOES-16 Lat,Lon METOP-C Lat,Lon Distance(km) Time Diff (sec)
1 04/05/2025 02:43:29 -0.06, -75.48 -0.57, -77.76 260.47 80
2 04/06/2025 02:20:08 -0.06, -75.47 0.53, -72.76 308.49 80
3 04/07/2025 14:38:59 0.06, -75.49 0.45, -77.33 209.02 80
4 04/08/2025 14:20:59 0.06, -75.50 -0.66, -72.33 360.87 80
5 04/10/2025 02:39:57 -0.06, -75.50 -0.39, -76.92 163.00 80
6 04/11/2025 02:16:37 -0.05, -75.50 0.72, -71.92 407.27 80
7 04/12/2025 14:35:28 0.06, -75.54 0.24, -76.50 108.82 80
8 04/13/2025 14:17:28 0.05, -75.55 -0.87, -71.50 461.97 80
9 04/15/2025 02:36:26 -0.05, -75.55 -0.15, -76.09 60.74 80
10 04/17/2025 14:31:56 0.05, -75.60 0.04, -75.65 6.20 80
